www.pogodaiklimat.ru

Погода и климат >> Архив погоды >> Россия >> Волгоградская область >> Калач-на-Дону


ПОГОДА в Калаче-на-Дону

  • Прогноз погоды в Калаче-на-Дону
  • Монитор погоды в Калаче-на-Дону

АРХИВ ПОГОДЫ в Калаче-на-Дону

Время (UTC), дата Ветер
(напр.,м/с)
 
Видим.   Явления Облачность Т
(С)
Тd
(С)
f
(%)
Тe
(С)
Тes
(С)
Комфортность P
(гПа)
Po
(гПа)
Тmin
(С)
Tmax
(С)
R
(мм)
R24
(мм)
S
(см)
12 15.01 Ю 3
{10}
20 км {дождь} 10/10 600 м
[Sc]
+1.7 +0.5 92 -3 -3 1007.0 1002.3
15 15.01 ЮВ 2 10 км 10/0
[Ac und]
+0.7 -0.1 94 -3 -3 1007.1 1002.3 +1.8 2
18 15.01 Ю 2 4000 м дымка 10/10 300 м
[St]
+0.9 +0.1 94 -3 -3 1006.1 1001.4
21 15.01 Ю 4 10 км слаб. дождь 10/0 300 м
[As op]
+1.1 +0.3 94 -4 -4 1004.2 999.5
00 16.01 Ю 4 4000 м дымка {дождь} 10/10 300 м
[St]
+0.9 +0.4 96 -5 -5 1002.2 997.5
03 16.01 ЮВ 5 4000 м дымка 10/10 300 м
[St]
+1.2 +0.6 96 -5 -5 998.5 993.8 +0.7 0.5 6
06 16.01 Ю 4 10 км слаб. дождь 10/0 300 м
[As op]
+1.5 +0.9 96 -4 -4 996.9 992.2
09 16.01 ЮЗ 3
{10}
20 км {дождь} 10/10 600 м
[Sc]
+2.5 +1.4 92 -2 -2 996.7 992.1
12 16.01 СЗ 6
{11}
20 км {дождь, морось} 10/10 600 м
[Sc]
+0.5 -1.9 84 -6 -6 1000.4 995.7
15 16.01 СЗ 6-10
{12}
10 км 8/5 600 м
[Sc Ac trans]
-1.0 -4.1 79 -8 -8 1005.7 1000.9 +2.6 0.0
18 16.01 СЗ 4
{10}
10 км 6/0
[Ac trans Ci fib]
-2.7 -5.7 80 -9 -9 1008.2 1003.4
21 16.01 СЗ 2 10 км 5/0
[Ac trans Ci fib]
-4.1 -6.5 83 -8 -8 1010.4 1005.5
00 17.01 СЗ 2 10 км 3/0
[Ac trans]
-5.2 -7.7 83 -9 -9 1012.6 1007.7
03 17.01 С 2 10 км ясно -6.4 -8.3 86 -11 -11 1014.8 1009.9 -6.4 5
06 17.01 СЗ 3 20 км 3/0
[Ac As]
-7.8 -8.8 93 -14 -13 1017.4 1012.5 -7.9
09 17.01 СЗ 4 20 км 10/10 600 м
[Sc]
-4.9 -7.4 83 -11 -11 1018.5 1013.6
12 17.01 СЗ 2 20 км 10/10 600 м
[Sc]
-4.4 -7.3 80 -9 -9 1019.4 1014.5
15 17.01 З 1 10 км 10/10 600 м
[Sc]
-4.9 -7.2 84 -7 -7 1021.3 1016.4 -4.4
18 17.01 З 2 10 км 10/10 600 м
[Sc]
-4.0 -6.4 83 -8 -8 1021.9 1017.0
21 17.01 Ю 1 10 км 10/10 600 м
[Sc]
-6.0 -7.3 90 -8 -8 1022.0 1017.0
00 18.01 Ю 1 10 км 8/0
[Ac trans]
-6.4 -7.2 94 -9 -9 1021.9 1017.0
03 18.01 Ю 1 10 км 4/0
[Ac trans]
-6.8 -7.7 93 -9 -9 1021.4 1016.5 -7.6 5
06 18.01 ЮЗ 4 20 км 6/0
[Ac cast]
-5.3 -6.7 90 -12 -12 1021.4 1016.5
09 18.01 ЮЗ 4 20 км 5/0
[Ac lent Ci fib]
-0.5 -5.4 69 -6 -4 1020.2 1015.4
12 18.01 З 3 20 км 10/0
[Ac lent]
-0.1 -4.8 71 -5 -4 1020.0 1015.2
15 18.01 З 1 10 км 10/10 600 м
[Sc]
-1.4 -2.8 90 -4 -4 1020.2 1015.3 +0.9
18 18.01 ЮВ 2 10 км 9/9 600 м
[Sc]
-2.4 -3.4 93 -7 -7 1019.7 1014.9
21 18.01 ЮЗ 5-10
{10}
10 км 10/10 600 м
[Sc]
+1.9 -0.5 84 -4 -4 1018.8 1014.0
00 19.01 ЮЗ 4
{11}
10 км 10/10 600 м
[Sc]
+2.4 -0.4 82 -2 -2 1017.0 1012.3
03 19.01 З 6-10
{11}
10 км 10/10 600 м
[Sc]
+2.8 -0.1 81 -3 -3 1016.1 1011.3 -2.5 3
06 19.01 ЮЗ 5
{11}
20 км 10/10 600 м
[Sc]
+2.4 +0.1 85 -3 -3 1016.2 1011.5
09 19.01 З 3 20 км 10/10 600 м
[Sc]
+2.9 +0.2 82 -1 -1 1016.0 1011.2
12 19.01 З 4 20 км 10/10 600 м
[Sc]
+2.7 +1.3 90 -2 -2 1015.1 1010.3
15 19.01 З 3 10 км 10/10 600 м
[Sc]
+2.2 +0.4 88 -2 -2 1015.4 1010.6 +3.0
18 19.01 З 3
{10}
4000 м дымка 10/10 300 м
[St]
+1.9 +1.0 94 -3 -3 1016.1 1011.3
21 19.01 С 3 10 км 10/0
[Ac und]
+1.4 -0.7 86 -3 -3 1018.1 1013.3
00 20.01 С 5 10 км 10/10 600 м
[Sc]
+0.3 -3.9 73 -5 -5 1020.6 1015.8
03 20.01 С 2 10 км ясно -3.5 -8.0 71 -7 -7 1023.1 1018.2 -3.5 2
06 20.01 СЗ 3 20 км ясно -5.0 -8.7 75 -10 -10 1025.2 1020.3 -5.5
09 20.01 СЗ 3 20 км ясно -2.0 -7.2 68 -7 -4 1026.0 1021.1
12 20.01 СЗ 2 20 км 3/0
[Ac trans]
-0.8 -7.5 60 -4 -3 1025.9 1021.1
15 20.01 штиль 0 10 км 3/0
[Ac trans]
-5.2 -7.6 83 -6 -6 1026.3 1021.3 -0.7
18 20.01 ЮВ 1 10 км 6/0
[Ac trans]
-6.9 -7.9 93 -9 -9 1026.4 1021.4
21 20.01 ЮВ 1 10 км 3/0
[Ac trans]
-7.4 -8.6 91 -10 -10 1025.9 1020.9
00 21.01 В 1 10 км 3/0
[Ac trans]
-8.1 -9.0 93 -11 -11 1024.4 1019.4
03 21.01 ЮВ 2 10 км 10/10 600 м
[Sc]
-4.6 -5.9 91 -9 -9 1022.2 1017.3 -8.1 2
06 21.01 Ю 2 20 км 10/10 600 м
[Sc]
-2.0 -4.5 83 -6 -6 1020.0 1015.1
09 21.01 Ю 4
{10}
20 км 10/10 600 м
[Sc]
-0.0 -2.0 86 -5 -5 1017.2 1012.4
12 21.01 Ю 4
{11}
20 км {дождь} 10/10 600 м
[Sc]
+0.8 -0.1 94 -5 -5 1013.7 1008.9
15 21.01 ЮЗ 4
{11}
10 км слаб. дождь 10/0 300 м
[As op]
+1.4 +0.3 92 -4 -4 1012.0 1007.2 +1.4 0.7
18 21.01 З 2 10 км слаб. дождь 10/0 300 м
[As op]
+1.6 +0.6 93 -2 -2 1011.9 1007.1
21 21.01 С 5 2000 м снег 10/0 300 м
[As op]
-3.2 -3.9 95 -10 -10 1014.3 1009.5
00 22.01 С 3
{10}
10 км 10/10 600 м
[]
-5.7 -7.7 86 -11 -11 1017.1 1012.2
03 22.01 С 3
{10}
10 км 9/0
[Ac As]
-6.9 -9.3 83 -13 -13 1018.9 1014.0 -6.9 8 6
06 22.01 С 2 20 км {снег} ясно -8.3 -10.4 85 -13 -12 1020.5 1015.5 -9.6
09 22.01 СЗ 2 20 км ясно -5.5 -8.8 78 -10 -7 1021.8 1016.9

 

Местоположение метеостанции Калач-на-Дону (Волгоградская область, Россия): широта 48.68 долгота 43.48 высота над уровнем моря 38 м.

В архиве по умолчанию представлена погода в Калаче-на-Дону за последнюю неделю. Архивные данные за месяц целиком и за предыдущие месяцы, начиная с января 2011 года, Вы можете получить, выбрав интересующий диапазон дат из раскрывающегося списка и нажав кнопку "Ввод!".


*Определитесь, кто Вы:
робот инопланетянин человек

Внимание! Время в таблицах - всемирное. Для получения местного времени необходимо прибавить поправку, которая равна 3 ч.

Смотрите также архив погоды в соседних городах и на ближайших метеорологических станциях:

Погода в Нижнем Чире (Волгоградская область, Россия) (47 км)
Погода в Волгограде (Волгоградская область, Россия) (66 км)
Погода в Волгограде город (Волгоградская область, Россия) (71 км)
Погода в Иловле (Волгоградская область, Россия) (79 км)
Погода в Серафимовиче (Волгоградская область, Россия) (113 км)
Погода в Котельниково (Волгоградская область, Россия) (119 км)
Погода в Малых Дербетах (Калмыкия, Россия) (123 км)
Погода в Морозовске (Ростовская область, Россия) (124 км)
Погода в Фролове (Волгоградская область, Россия) (125 км)
Погода в Боковской (Ростовская область, Россия) (135 км)

Пояснения к столбцам:

Ветер - указаны скорость ветра в м/с - средняя за 10 мин, порывы в срок и между сроками (в фигурных скобках) и направление, откуда дует ветер: С - северный, СВ - северо-восточный, В - восточный, ЮВ - юго-восточный, Ю - южный, ЮЗ - юго-западный, З - западный, СЗ - северо-западный.
Видимость - горизонтальная дальность видимости в метрах или километрах. При видимости от 1 до 10 км при отсутствии осадков обычно наблюдается дымка, при ухудшении видимости до 1 км и менее - туман. В сухую погоду видимость может ухудшаться дымом, пылью или мглою.
Явления - указаны атмосферные явления, наблюдавшиеся в срок или в последний час перед сроком; фигурными скобками обозначены явления, наблюдавшиеся между сроками (за 1-3 часа до срока); квадратными скобками обозначены град или гололедные отложения с указанием их диаметра в мм.
Облачность - указаны через наклонную черту общая и нижняя облачность в баллах и высота нижней границы облаков в метрах; квадратными скобками обозначены формы облаков: Ci - перистые, Cs - перисто-слоистые, Cc - перисто-кучевые, Ac - высококучевые, As - высокослоистые, Sc - слоисто-кучевые, Ns - слоисто-дождевые, Cu - кучевые, Cb - кучево-дождевые. Подробнее классификацию облаков см. в Атласе облаков (PDF).
T - Температура воздуха - температура, измеренная на высоте 2 м над землей.
Td - Температура точки росы - температура, при понижении до которой содержащийся в воздухе водяной пар достигнет насыщения.
f - Относительная влажность воздуха - влажноcть воздуха, измеренная на высоте 2 м над землей.
Te - Эффективная температура - температура, которую ощущает одетый по сезону человек в тени. Характеристика душности погоды. При расчете учитывается влияние влажности воздуха и скорости ветра на теплоощущения человека.
Tes - Эффективная температура на солнце - температура, которую ощущает человек, с поправкой на солнечный нагрев. Характеристика знойности погоды. Зависит от высоты солнца над горизонтом, облачности и скорости ветра. Ночью, в пасмурную погоду, а также при ветре 12 м/с и более поправка равна нулю.
P - Атмосферное давление - приведенное к уровню моря атмосферное давление.
Po - Атмосферное давление - измеренное на уровне метеостанции атмосферное давление.
Tmin - Минимальная температура - минимум температуры воздуха на высоте 2 м над землей.
Tmax - Максимальная температура - максимум температуры воздуха на высоте 2 м над землей.
R - Количество осадков - Количество выпавших осадков за период времени, мм. При наведении курсора мыши на число - период времени, за который выпало указанное количество осадков.
R24 - Количество осадков - Количество выпавших осадков за 24 часа, мм.
S - Снежный покров - Высота снежного покрова, см. При наведении курсора мыши на число - состояние снежного покрова и степень покрытия местности в баллах.